Location: Palomar Mountain Lodge
(33.3110°N, 116.8495°W)
Time: 15:01:41
(UTC-07:00)

SPOT 5 - Pass Details

Date: 14 June 2018
Orbit: 622 x 816 km, 98.4° (Epoch: 16 August)

Event Time Altitude Azimuth Distance (km) Brightness Sun altitude
Exits shadow 21:45:14 29° 99° (E) 1,327 3.8 -18.6°
Maximum altitude 21:46:28 33° 70° (ENE) 1,229 3.8 -18.8°
Drops below altitude 10° 21:50:55 10° 8° (N) 2,294 6.0 -19.4°
Sets 21:53:28 0° 359° (N) 3,253 7.0 -19.8°
